Weather History for Lihue, HI

Change the Weather History Date:

Friday, November 9, 2012

  Actual Average Record
Temperature  
Mean Temperature 79 °F 76 °F  
Max Temperature 83 °F 81 °F 85 °F (1959)
Min Temperature 74 °F 71 °F 61 °F (1950)
Degree Days  
Heating Degree Days 0 0  
Month to date heating degree days 0 0  
Since 1 July heating degree days 0 0  
Cooling Degree Days 14 11  
Month to date cooling degree days 112 106  
Year to date cooling degree days 3599 3473  
Growing Degree Days 29 (Base 50)    
Moisture  
Dew Point 67 °F    
Average Humidity 69    
Maximum Humidity 79    
Minimum Humidity 58    
Precipitation  
Precipitation 0.08 in 0.16 in 6.75 in (1955)
Month to date precipitation 0.27 1.37  
Year to date precipitation 36.50 28.76  
Snow  
Snow 0.00 in - - ()
Month to date snowfall 0.0  
Since 1 July snowfall 0.0  
Since 1 September snowfall 0.0  
Snow Depth 0.00 in    
Sea Level Pressure  
Sea Level Pressure 30.10 in    
Wind  
Wind Speed 17 mph (NE)    
Max Wind Speed 21 mph    
Max Gust Speed 26 mph    
Visibility 10 miles    
Events Rain    
T = Trace of Precipitation, MM = Missing Value Source: NWS Daily Summary

Daily Weather History Graph

Daily Weather History Graph

Search for Another Location

Airport:

Trip Planner

Search our weather history database for the weather conditions in past years. The results will help you decide how hot, cold, wet, or windy it might be!

Date:

Astronomy

Nov. 09, 2012 Rise Set
Actual Time 6:45 AM HST 5:56 PM HST
Civil Twilight 6:22 AM HST 6:19 PM HST
Nautical Twilight 5:55 AM HST 6:46 PM HST
Astronomical Twilight 5:29 AM HST 7:12 PM HST
Moon 2:28 AM HST (11/9) 2:49 PM HST (11/9)
Length of Visible Light 11h 56m
Length of Day
11h 10m
Waning Crescent, 21% of the Moon is Illuminated
Nov 9
Waning Crescent
Nov 13
New
Nov 20
First Quarter
Nov 28
Full
Dec 6
Last Quarter

Hourly Weather History & Observations

Time (HST) Temp. Heat Index Dew Point Humidity Pressure Visibility Wind Dir Wind Speed Gust Speed Precip Events Conditions
12:53 AM 75.9 °F - 68.0 °F 76% 30.12 in 10.0 mi NE 13.8 mph - N/A   Scattered Clouds
1:53 AM 75.9 °F - 68.0 °F 76% 30.09 in 10.0 mi NE 15.0 mph - 0.00 in   Mostly Cloudy
2:28 AM 75.2 °F - 68.0 °F 78% 30.09 in 10.0 mi NE 15.0 mph - N/A   Scattered Clouds
2:53 AM 75.0 °F - 68.0 °F 79% 30.07 in 10.0 mi NE 16.1 mph - N/A   Scattered Clouds
3:53 AM 75.9 °F - 68.0 °F 76% 30.06 in 10.0 mi NE 19.6 mph - 0.00 in Rain Light Rain
4:53 AM 75.0 °F - 68.0 °F 79% 30.07 in 10.0 mi NE 15.0 mph - 0.00 in   Partly Cloudy
5:53 AM 75.9 °F - 66.9 °F 74% 30.08 in 10.0 mi NE 17.3 mph - N/A   Scattered Clouds
6:40 AM 75.2 °F - 68.0 °F 78% 30.10 in 8.0 mi NE 17.3 mph - 0.07 in Rain Light Rain
6:53 AM 75.0 °F - 68.0 °F 79% 30.10 in 8.0 mi ENE 17.3 mph - 0.07 in   Mostly Cloudy
7:01 AM 75.2 °F - 66.2 °F 73% 30.11 in 10.0 mi ENE 16.1 mph - N/A   Scattered Clouds
7:53 AM 75.9 °F - 68.0 °F 76% 30.11 in 10.0 mi ENE 17.3 mph 23.0 mph N/A   Scattered Clouds
8:01 AM 77.0 °F - 68.0 °F 74% 30.12 in 10.0 mi ENE 18.4 mph - 0.00 in Rain Light Rain
8:11 AM 77.0 °F - 68.0 °F 74% 30.13 in 10.0 mi ENE 17.3 mph - 0.00 in   Scattered Clouds
8:53 AM 79.0 °F - 69.1 °F 72% 30.13 in 10.0 mi ENE 16.1 mph - 0.00 in   Partly Cloudy
9:53 AM 79.0 °F - 68.0 °F 69% 30.14 in 10.0 mi ENE 17.3 mph - N/A   Partly Cloudy
10:53 AM 81.0 °F 83.3 °F 66.9 °F 62% 30.13 in 10.0 mi ENE 18.4 mph - N/A   Partly Cloudy
11:36 AM 82.4 °F 85.4 °F 68.0 °F 62% 30.12 in 10.0 mi NE 17.3 mph - N/A   Mostly Cloudy
11:43 AM 82.4 °F 85.4 °F 68.0 °F 62% 30.12 in 10.0 mi ENE 17.3 mph - N/A   Scattered Clouds
11:53 AM 82.0 °F 84.9 °F 68.0 °F 62% 30.11 in 10.0 mi NE 17.3 mph - N/A   Mostly Cloudy
12:02 PM 82.4 °F 85.4 °F 68.0 °F 62% 30.11 in 10.0 mi NE 17.3 mph - N/A   Mostly Cloudy
12:10 PM 82.4 °F 84.6 °F 66.2 °F 58% 30.11 in 10.0 mi ENE 15.0 mph - N/A   Scattered Clouds
12:53 PM 82.0 °F 84.9 °F 68.0 °F 62% 30.08 in 10.0 mi NE 16.1 mph - N/A   Partly Cloudy
1:53 PM 82.9 °F 85.4 °F 66.9 °F 58% 30.05 in 10.0 mi NE 16.1 mph - N/A   Partly Cloudy
2:53 PM 79.0 °F - 68.0 °F 69% 30.04 in 10.0 mi ENE 17.3 mph - 0.00 in   Mostly Cloudy
3:53 PM 78.1 °F - 66.0 °F 66% 30.05 in 10.0 mi NE 16.1 mph - N/A   Partly Cloudy
4:53 PM 78.1 °F - 64.9 °F 64% 30.05 in 10.0 mi NE 16.1 mph - N/A   Partly Cloudy
5:53 PM 77.0 °F - 66.0 °F 69% 30.07 in 10.0 mi NE 17.3 mph - N/A   Scattered Clouds
6:53 PM 77.0 °F - 64.9 °F 66% 30.09 in 10.0 mi NE 17.3 mph - N/A   Partly Cloudy
7:53 PM 77.0 °F - 64.9 °F 66% 30.11 in 10.0 mi NE 17.3 mph 24.2 mph N/A   Scattered Clouds
8:53 PM 75.9 °F - 66.0 °F 71% 30.12 in 10.0 mi NE 15.0 mph - N/A   Partly Cloudy
9:53 PM 75.9 °F - 64.9 °F 69% 30.12 in 10.0 mi ENE 18.4 mph - N/A   Scattered Clouds
10:53 PM 75.9 °F - 64.9 °F 69% 30.12 in 10.0 mi NE 13.8 mph - N/A   Scattered Clouds
11:53 PM 73.9 °F - 64.9 °F 73% 30.11 in 7.0 mi ENE 15.0 mph - 0.01 in Rain Light Rain